Regional Weather Roundup
Issued by NWS Albany, NY

Current Version | Previous Version | Text Only | Print | Product List | Glossary On
Versions: 1 2 3 4 5 6 7 8 9 10 11 12 13 14 15 16 17 18 19 20 21 22 23 24 25 26 27 28
000
ASUS41 KALY 261710
RWRALY

NEW YORK STATE HOURLY WEATHER ROUNDUP
NATIONAL WEATHER SERVICE ALBANY NY
100 PM EDT SUN JUN 26 2016

NOTE: "FAIR" INDICATES FEW OR NO CLOUDS BELOW 12,000 FEET WITH NO
SIGNIFICANT WEATHER AND/OR NO OBSTRUCTIONS TO VISIBILITY.

NYZ032-033-038>043-046>054-057>066-NYZ062>081-082-084-261800-
EAST


CITY           SKY/WX    TMP DP  RH WIND       PRES   REMARKS
ALBANY         PTSUNNY   86  60  41 S5        30.16F
GLENS FALLS    SUNNY     83  62  49 S7        30.15F
POUGHKEEPSIE   SUNNY     87  57  35 VRB5      30.17F
NEWBURGH       SUNNY     84  63  48 CALM      30.21F
MONTGOMERY     MOSUNNY   88  61  40 S8        30.18F
WHITE PLAINS   MOSUNNY   84  56  38 SW7       30.21S
ISLIP          PTSUNNY   75  60  59 S9        30.23S
NEW YORK CITY  PTSUNNY   84  59  42 S14       30.20S
CENTRAL PARK   SUNNY     86  58  38 CALM      30.24R
$$

NYZ005>009-017-018-044>046-055-056-261800-
CENTRAL


CITY           SKY/WX    TMP DP  RH WIND       PRES   REMARKS
FULTON         SUNNY     90  59  35 SW13      30.11F
SYRACUSE       CLOUDY    86  59  39 S9G21     30.11F
ROME           SUNNY     86  57  37 S9        30.14F
ELMIRA         SUNNY     87  56  34 SW10      30.16F
BINGHAMTON     SUNNY     81  54  39 SW13G21   30.21F
MONTICELLO     MOSUNNY   82  55  39 SW9       30.25F
$$

NYZ026>034-041>043-087-261800-
NORTH


CITY           SKY/WX    TMP DP  RH WIND       PRES   REMARKS
WATERTOWN      PTSUNNY   85  63  47 SW10      30.09F
FORT DRUM      NOT AVBL
MASSENA        SUNNY     86  61  42 SW9       30.09F
SARANAC LAKE   PTSUNNY   82  56  40 SW12      30.15F
PLATTSBURGH    MOSUNNY   81  63  54 SE13      30.09F
$$

NYZ001>004-010>016-019>021-085-261800-
WEST


CITY           SKY/WX    TMP DP  RH WIND       PRES   REMARKS
NIAGARA FALLS  PTSUNNY   90  60  36 SW17G26   30.07F
BUFFALO        PTSUNNY   87  59  38 W20G29    30.10S
DUNKIRK        SUNNY     87  62  43 W10       30.10F
JAMESTOWN      MOSUNNY   81  59  47 S9G21     30.17F
WELLSVILLE     SUNNY     81  60  48 VRB7G18   30.22F
ROCHESTER      PTSUNNY   88  63  43 S14       30.09F
PENN YAN       SUNNY     87  56  34 MISG      30.15F
$$

             KEY
       WCI = WIND CHILL INDEX
       VSB = VISIBILITY
       HX  = HEAT INDEX
$$




USA.gov is the U.S. government's official web portal to all federal, state and local government web resources and services.